Location: ????
(55.5675°N, 37.6272°E)
Time: 06:25:57
(UTC+00:00)

Cosmos 1656 - Pass Details

Date: 14 April 2026
Orbit: 798 x 846 km, 71.1° (Epoch: 10 May)

Event Time Altitude Azimuth Distance (km) Brightness Sun altitude
Rises 21:59:02 0° 324° (NW) 3,318 7.5 -24.5°
Reaches altitude 10° 22:01:31 10° 318° (NW) 2,387 6.5 -24.4°
Enters shadow 22:06:32 45° 252° (WSW) 1,096 4.0 -24.3°
